Tracking 29892 objects as of 21-Nov-2024
HD Live streaming from Space Station
objects crossing your sky now

DELTA 1 DEB

Track DELTA 1 DEB now!
10-day predictions


NORAD ID: 7030
Int'l Code: 1973-086W
Perigee: 1,510.6 km
Apogee: 1,653.7 km
Inclination: 101.9 °
Period: 117.6 minutes
Semi major axis: 7953 km
RCS: 0.058 m2 (small)
Launch date: November 6, 1973
Source: United States (US)
Launch site: AIR FORCE WESTERN TEST RANGE (AFWTR)

Note: This is SATELLITE DEBRIS
Your satellite tracking list
Your tracking list is empty




NASA's NSSDC Master Catalog

Two Line Element Set (TLE):
1 07030U 73086W   24325.50542536  .00000009  00000-0  45673-3 0  9997
2 07030 101.9196 335.4837 0089939 140.6532  16.0209 12.24041841279453
Source of the keplerian elements: AFSPC